#timestamp,LO_Frequency,Hit,StdDev 
1596999615.1,286046999.4,N
1596999635.9,286046998.1,N
1596999655.7,286046998.6,N
1596999675.6,286046998.7,N
1596999695.4,286046998.4,N
1596999715.2,286046998.7,N
1596999735.1,286046998.5,N
1596999736.0,286046998.5,N
1596999755.8,286047001.2,N
1596999775.7,286047002.7,N
1596999795.5,286046999.9,N
1596999815.3,286047003.5,N
1596999835.2,286047005.6,Y
1596999855.0,286047004.9,P
1596999855.9,286047004.9,N
1596999875.8,286047008.9,P
1596999895.6,286047010.6,Y
1596999915.4,286047004.8,P
1596999935.3,286047004.8,P
1596999955.1,286047005.0,P
1596999975.9,286047007.4,Y
1596999995.7,286047002.3,P
1597000015.5,286047004.3,P
1597000035.4,286047004.0,P
1597000055.2,286047003.8,Y
1597000075.0,286047002.8,P
1597000075.9,286047002.8,P
1597000095.8,286047001.6,P
1597000115.6,286047001.5,N
1597000135.5,286047003.8,Y
1597000155.3,286047001.9,P
1597000175.1,286047004.0,P
1597000195.9,286047004.3,P
1597000215.7,286047004.2,Y
1597000235.6,286047000.4,P
1597000255.4,286047000.7,N
1597000275.2,286047000.6,N
1597000295.1,286047002.3,N
1597000296.0,286047002.3,N
1597000315.8,286047002.4,N
1597000335.7,286047002.4,N
1597000355.5,286047002.2,N
1597000375.4,286047002.2,N
1597000395.2,286047001.4,N
1597000415.0,286047000.1,N
1597000415.9,286047000.1,N
1597000435.8,286047004.4,Y
1597000455.6,286047002.2,P
1597000475.4,286047000.5,N
1597000495.3,286047000.7,N
1597000515.1,286047001.1,N
1597000535.9,286046998.1,Y
1597000555.7,286046998.2,P
1597000575.5,286047001.1,N
1597000595.4,286046998.3,N
1597000615.2,286046999.0,N
1597000635.0,286046999.0,N
1597000636.0,286046999.0,N
1597000655.8,286046999.4,N
1597000675.6,286046999.3,N
1597000695.5,286046998.7,N
1597000715.3,286046998.7,N
1597000735.1,286046998.3,N
1597000755.9,286047000.9,N
1597000775.7,286047000.7,N
1597000795.6,286047000.5,N
1597000815.4,286047000.4,N
1597000835.2,286046999.9,N
1597000855.1,286046999.8,N
1597000856.0,286046999.8,N
1597000875.8,286047002.7,N
1597000895.6,286046999.8,N
1597000915.5,286047002.6,N
1597000935.3,286047002.2,N
1597000955.2,286047001.6,N
1597000975.9,286047001.4,N
1597000995.7,286047001.7,N
1597001015.6,286047001.7,N
1597001035.4,286047002.6,N
1597001055.3,286047004.3,Y
1597001075.1,286047003.7,P
1597001076.0,286047003.7,N
1597001095.8,286047003.2,N
1597001115.7,286047003.3,N
1597001135.5,286047008.3,Y
1597001155.3,286047003.8,P
1597001175.2,286047003.4,P
1597001195.0,286047004.1,P
1597001195.9,286047004.1,Y
1597001215.8,286047000.8,P
1597001235.6,286046998.1,N
1597001255.4,286046998.3,N
1597001275.3,286046999.0,N
1597001295.1,286046999.3,N
1597001315.9,286046998.9,N
1597001335.7,286046998.6,N
1597001355.5,286046999.0,N
1597001375.4,286046998.9,N
1597001395.2,286047000.9,N
1597001415.0,286047001.0,N
1597001415.9,286047001.0,N
1597001435.8,286047000.7,N
1597001455.6,286047002.8,N
1597001475.5,286047000.2,N
1597001495.3,286047000.1,N
1597001515.1,286047002.7,N
1597001535.9,286047002.5,N
1597001555.7,286047004.3,N
1597001575.5,286047003.1,N
1597001595.4,286047003.4,N
1597001615.2,286047004.7,N
1597001635.1,286047007.1,Y
1597001636.0,286047007.1,P
1597001655.8,286047005.5,N
1597001675.6,286047007.3,N
1597001695.5,286047006.6,N
1597001715.3,286047008.4,Y
1597001735.2,286047003.0,P
1597001755.9,286047005.9,P
1597001775.7,286047004.7,P
1597001795.6,286047004.5,Y
1597001815.4,286047002.6,P
1597001835.3,286047001.8,N
1597001855.2,286047003.8,P
1597001875.0,286047003.8,Y
1597001875.9,286047003.8,P
1597001895.8,286047001.1,P
1597001915.6,286046998.8,N
1597001935.5,286046998.9,N
1597001955.3,286046998.3,N
1597001975.1,286046998.5,N
1597001995.9,286046999.3,N
1597002015.7,286046998.5,N
1597002035.6,286047001.2,N
1597002055.4,286046999.1,N
1597002075.2,286046997.1,N
1597002095.1,286046997.3,N
1597002096.0,286046997.3,N
1597002115.8,286046997.1,N
1597002135.6,286046997.4,N
1597002155.5,286046997.1,N
1597002175.3,286046996.7,N
1597002195.2,286046997.8,N
1597002215.9,286046997.3,N
1597002235.7,286046997.9,N
1597002255.6,286046997.7,N
1597002275.4,286046995.0,N
1597002295.2,286046998.0,N
1597002315.1,286047011.9,Y
1597002316.0,286046993.3,P
1597002335.8,286046997.4,N
1597002355.7,286046995.0,N
1597002375.5,286046995.1,N
1597002395.3,286046996.9,N
1597002415.2,286047000.7,N
1597002435.0,286047001.9,N
1597002435.9,286047001.9,N
1597002455.8,286047006.0,N
1597002475.6,286047007.4,N
1597002495.4,286047010.4,N
1597002515.3,286047012.0,N
1597002535.1,286047012.3,N
1597002555.9,286047013.7,N
1597002575.7,286047013.6,N
1597002595.5,286047012.7,N
1597002615.4,286047012.7,N
1597002635.2,286047012.6,N
1597002655.0,286047013.1,N
1597002655.9,286047013.1,N
1597002675.8,286047013.7,N
1597002695.6,286047013.6,N
1597002715.5,286047013.9,N
1597002735.3,286047012.0,N
1597002755.1,286047012.0,N
1597002775.9,286047011.7,N
1597002795.7,286047009.4,N
1597002815.6,286047009.7,N
1597002835.4,286047009.5,N
1597002855.2,286047011.5,N
1597002875.1,286047012.0,N
1597002876.0,286047012.0,N
1597002895.8,286047010.5,N
1597002915.6,286047012.3,N
1597002935.5,286047010.8,N
1597002955.3,286047010.7,Y
1597002975.2,286047001.2,P
1597002995.9,286047000.7,N
1597003015.7,286046998.2,N
1597003035.6,286046998.4,N
1597003055.4,286046998.2,N
1597003075.2,286046998.2,N
1597003095.1,286046998.5,N
1597003096.0,286046998.5,N
1597003115.8,286046998.1,N
1597003135.7,286047000.0,N
1597003155.5,286047000.5,N
1597003175.3,286047004.4,N
1597003195.2,286047005.8,N
